Dauntless Aviation
Airports Europe Croatia
LDSP
SPU

Split

Split, CROATIA

Airport Info
Suggest Updated Information for this Airport

Location

Latitude / Longitude: 43°32'20"N / 16°17'52"E
  43°32.334'N / 16°17.88'E
  43.5389 / 16.2980

Nearby radio navigation aids

DVN DRVENIK NDB. 48.4° 8.7nm from DVN to field.
SPL SPLIT VOR/DME. 351.2° 2.6nm from SPL to field.
TRI TROGIR NDB. 50.4° 4.2nm from TRI to field.

Runway Information

Runway 05 /23

Dimensions: 8366 x 148 ft.
Surface: ASP
 
Runway 05
Runway 23
Latitude: 43.532053 43.545181
Longitude: 16.285583 16.309194
Elevation: 70 ft. 70 ft.
Runway true heading: 53.2 233.2
 

Instrument Procedures

  Aircraft Parking/Docking Chart
  Aerodrome Chart

STARs (Standard Terminal Arrivals)

  STAR - Instrument (STAR) - Rwy 23
  STAR - Instrument (STAR) - Rwy 05

IAPs (Instrument Approach Procedures)

  ATC Surveillance Minimum Altitude Chart
  VOR-B Rwy 23
  Bird Concentrations
  Visual Approach Chart
  NDB Rwy 05
  ILSz Rwy 05
  ILSy Rwy 05
  Aerodrome Obstacle Chart - Type A - Rwy 23
  Aerodrome Obstacle Chart - Type A - Rwy 05
  Visual Operation Chart

Departure Procedures

  SID - Instrument (SID) - Rwy 23
  SID - Instrument (SID) - Rwy 05
Satellite photo at:
Airport distance calculator
From:
Weather Reports

METAR

LDSP

LDSP 020530Z 04007KT 9999 FEW020 BKN040 13/11 Q1009 NOSIG

TAF

LDSP
TAF LDSP 012325Z 0200/0224 08006KT 9999 FEW012 BKN035 TX16/0213Z TN12/0204Z PROB30 TEMPO 0205/0216 TSRA SCT015 FEW025CB BKN030 BECMG 0212/0214 32012KT BECMG 0216/0218 34005KT BECMG 0219/0221 04012KT
LDSB
22.8nm E
TAF LDSB 011125Z 0112/0212 12015KT 9999 BKN015 TX10/0113Z TN08/0203Z TEMPO 0112/0212 0050 RA FG VV001 PROB30 TEMPO 0112/0124 1500 TSRA BKN010 FEW015CB BECMG 0204/0206 10008KT
Safelog

 

Dauntless Aviation

© 2007-2016 Dauntless Aviation, all rights reserved
Information provided via PilotNav comes from a variety of official and unofficial data sources. As errors are possible, do not use PilotNav for primary flight planning purposes. Verify any information that you receive via PilotNav with current and canonical charts and other official documents. The material in this database is subject to database copyrights held by Dauntless Aviation and may not be copied without the express permission of Dauntless Aviation - licenses for use of part of all of this data are available for purchase; enquire via the Dauntless Aviation helpdesk. A number of mechanisms and markers exist in the database to protect against and identify infringement / copyright. Automated queries against this website are stictly prohibited, and all activity is logged and analyzed.